Regional Weather Roundup
Issued by NWS Charleston, SC

Current Version | Previous Version | Graphics & Text | Print | Product List | Glossary On
Versions: 1 2 3 4 5 6 7 8 9 10 11 12 13 14 15 16 17 18 19 20 21 22 23 24 25 26 27 28 29 30 31 32 33 34 35 36 37 38 39 40 41 42 43 44 45 46 47 48 49 50
130
ASUS42 KCHS 051827
RWRCHS

REGIONAL WEATHER ROUNDUP
NATIONAL WEATHER SERVICE CHARLESTON SC
100 PM EST MON DEC 05 2016

NOTE: "FAIR" INDICATES FEW OR NO CLOUDS BELOW 12,000 FEET WITH NO
SIGNIFICANT WEATHER AND/OR OBSTRUCTIONS TO VISIBILITY.

NOT ALL STATIONS ARE QUALITY CONTROLLED. USE DATA WITH CAUTION...
ESPECIALLY DEWPOINT OBSERVATIONS.

SCZ027-030-031-034>040-042>050-051900-
...SOUTHEAST SOUTH CAROLINA...

CITY           SKY/WX    TMP DP  RH WIND       PRES   REMARKS
N CHARLESTON   CLOUDY    58  53  84 N3        29.97F
6HR MIN TEMP:  53; 6HR MAX TEMP:  58; 6HR PCP:  0.02;

WATERFRONT PRK   N/A     56  55  97 N6        29.97F
MOUNT PLEASANT CLOUDY    57  55  94 NW3       29.97F
JOHNS ISLAND   CLOUDY    61  57  88 VRB6      29.97S
PINOPOLIS        N/A     52  52 100 N5        29.91F
MONCKS CORNER  FAIR      54  50  87 N3        29.98F
SUMMERVILLE    CLOUDY    55  55 100 N3        29.98F
BEAUFORT MCAS  CLOUDY    60  55  83 CALM      29.97F
6HR MIN TEMP:  53; 6HR MAX TEMP:  65;

BEAUFORT ARPT  CLOUDY    59  57  94 N3        29.96F
HILTON HEAD IS CLOUDY    63  59  88 N6        29.98F
WALTERBORO     CLOUDY    59 N/A N/A CALM      29.97F
ALLENDALE      CLOUDY    55  52  88 CALM      29.96F

...SOUTHERN MIDLANDS AND PEE DEE...

CITY           SKY/WX    TMP DP  RH WIND       PRES   REMARKS
GEORGETOWN     NOT AVBL
KINGSTREE      MOCLDY    55  50  82 NW6       29.99S
ORANGEBURG     CLOUDY    56  50  80 N5        29.99F
6HR MIN TEMP:  46; 6HR MAX TEMP:  56; 6HR PCP:  0.06;

BARNWELL       NOT AVBL
AIKEN          MOCLDY    54  48  82 NE6       30.00F
MANNING        NOT AVBL
COLUMBIA       CLOUDY    56  48  74 E3        29.99F
6HR MIN TEMP:  46; 6HR MAX TEMP:  56; 6HR PCP: TRACE;

SUMTER         PTSUNNY   54  48  82 VRB2      29.97F
6HR MIN TEMP:  45; 6HR MAX TEMP:  54; 6HR PCP:  0.01;

FLORENCE       MOSUNNY   56  49  77 N6        29.99F
6HR MIN TEMP:  46; 6HR MAX TEMP:  56; 6HR PCP: TRACE;

MYRTLE BEACH   NOT AVBL
N MYRTLE BEACH CLOUDY    60  52  74 N12       29.97F
6HR MIN TEMP:  50; 6HR MAX TEMP:  60; 6HR PCP:  0.34;


$$

GAZ063-065-086>088-099>101-113>116-118-119-134>141-150-051900-
...SOUTHEAST GEORGIA...

CITY           SKY/WX    TMP DP  RH WIND       PRES   REMARKS
SAVANNAH ARPT  CLOUDY    60  55  83 N5        29.97F
6HR MIN TEMP:  56; 6HR MAX TEMP:  67; 6HR PCP:  0.07;

HUNTER AAF     CLOUDY    61  61 100 E3        29.94F FOG
6HR MIN TEMP:  58; 6HR MAX TEMP:  68;

FORT STEWART   CLOUDY    61  57  88 CALM      29.93F
6HR MIN TEMP:  58; 6HR MAX TEMP:  69;

STATESBORO     CLOUDY    59  56  91 N3        29.96F
SYLVANIA       CLOUDY   N/A N/A N/A CALM      29.98S
CLAXTON        CLOUDY    63  60  91 CALM      29.95F

...CSRA...CENTRAL AND FAR SOUTHEAST GEORGIA...

CITY           SKY/WX    TMP DP  RH WIND       PRES   REMARKS
THOMSON        CLOUDY    54  52  92 CALM      30.02F
AUGUSTA-BUSH   CLOUDY    55  49  80 CALM      29.98
6HR MIN TEMP:  47; 6HR MAX TEMP:  55; 6HR PCP:  0.01;

AUGUSTA-DANIEL CLOUDY    54  47  77 VRB5      29.99F
SWAINSBORO     CLOUDY    54  52  94 CALM      29.97S
VIDALIA        CLOUDY    61  59  94 E5        29.95F
EASTMAN        RAIN      56  56  99 CALM      29.97F
HAZLEHURST     RAIN      58  58 100 CALM      29.93F
ALMA           CLOUDY    59  59 100 NE5       29.95F FOG
6HR MIN TEMP:  57; 6HR MAX TEMP:  67; 6HR PCP: TRACE;

WAYCROSS       CLOUDY    67  67 100 NE5       29.93F FOG
JESUP          CLOUDY    63  63 100 CALM      29.94F FOG
BAXLEY         LGT RAIN  59  59 100 NE3       29.94F
BRUNSWICK      CLOUDY    77  72  83 SW5       29.94F
SAINT SIMONS   PTSUNNY   76  68  76 W6        29.93F
6HR MIN TEMP:  67; 6HR MAX TEMP:  74; 6HR PCP: TRACE;


$$

SCZ027-028-034-036>038-045-046-048>050-GAZ119-141-051900-
...LAKE AND SUPPLEMENTAL COASTAL OBSERVATIONS...

STATION/POSITION TIME  TEMP    WIND        PRES    WAVE   SWELL
                       AIR SEA DIR/SP/G            HT/PER HT/PER/DIR
                 (UTC) (F)     (DEG/KT/KT) (MB)    (FT/S) (FT/S/D)
WINYAH BAY       1745   56     360/  4     1015.0F
LAKE MURRAY      1730   53      70/  2/  3 1015.2F
ACE BASIN NERRS  1745   59     330/  1     1015.0S
FORT PULASKI     1800   58 62   60/  4/  5 1014.8
SAPELO ISLAND    1800   68      10/  5     1014.0

$$

ANZ835-935-AMZ111-154-330-350-352-354-370-450-454-472-051900-
...C-MAN AND BUOY OBSERVATIONS...

STATION/POSITION TIME  TEMP    WIND        PRES    WAVE   SWELL
                       AIR SEA DIR/SP/G            HT/PER HT/PER/DIR
                 (UTC) (F)     (DEG/KT/KT) (MB)    (FT/S) (FT/S/D)
BUOY 41004       1750   63 74  340/  8/ 10 1014.0F   6/ 7   5/170/ 7
BUOY 41008       1750   66 65  240/  2/  4 1014.1F   4/ 6   3/150/ 6
FOLLY BEACH CMAN 1800   57     350/  6/  8 1015.2F
CAPERS NEARSHORE 1708   56 62   20/  6/ 10 1014.8F
FRIPP NEARSHORE  1808   58 62   50/  4/  8 1014.4F


STATION/POSITION TIME  TEMP    WIND        PRES    WAVE   SWELL
                       AIR SEA DIR/SP/G            HT/PER HT/PER/DIR
                 (UTC) (F)     (DEG/KT/KT) (MB)    (FT/S) (FT/S/D)
5E ST. MARYS GA  1800      67                N/A     3/ 5
FRYING PAN BUOY  1810   60 74  350/ 12/ 17 1014.0
BUOY 41025       1750   57 73  350/ 17/ 21 1014.0R   6/ 8   3/180/ 8
CAPE LOOKOUT NC  1800   56      10/  9/ 12 1013.9F
BUOY 41002       1750   72 73  190/ 21/ 27 1014.1F   6/ 6   2/ 50/10
BUOY 41010       NOT AVBL
ST AUGUSTINE FL  1800   80 69  210/ 12/ 15 1014.1F


$$




USA.gov is the U.S. government's official web portal to all federal, state and local government web resources and services.